Weather History for Hyannis, MA

Change the Weather History Date:

Tuesday, November 20, 2012

  Actual Average Record
Temperature  
Mean Temperature 48 °F -  
Max Temperature 51 °F 49 °F 69 °F (1953)
Min Temperature 42 °F 33 °F 19 °F (1961)
Degree Days  
Heating Degree Days 18    
Moisture  
Dew Point 38 °F    
Average Humidity 74    
Maximum Humidity 82    
Minimum Humidity 61    
Precipitation  
Precipitation 0.00 in - - ()
Sea Level Pressure  
Sea Level Pressure 30.14 in    
Wind  
Wind Speed 8 mph (NNE)    
Max Wind Speed 15 mph    
Max Gust Speed 21 mph    
Visibility 10 miles    
Events      
Averages and records for this station are not official NWS values.
T = Trace of Precipitation, MM = Missing Value Source: NWS Daily Summary

Daily Weather History Graph

Daily Weather History Graph

Search for Another Location

Airport:

Trip Planner

Search our weather history database for the weather conditions in past years. The results will help you decide how hot, cold, wet, or windy it might be!

Date:

Astronomy

Nov. 20, 2012 Rise Set
Actual Time 6:36 AM EST 4:16 PM EST
Civil Twilight 6:06 AM EST 4:46 PM EST
Nautical Twilight 5:32 AM EST 5:20 PM EST
Astronomical Twilight 4:59 AM EST 5:53 PM EST
Moon 12:06 PM EST (11/20) 11:48 PM EST (11/20)
Length of Visible Light 10h 40m
Length of Day
9h 39m
Waxing Crescent, 51% of the Moon is Illuminated
Nov 20
Waxing Crescent
Nov 28
Full
Dec 6
Last Quarter
Dec 13
New
Dec 20
First Quarter

Hourly Weather History & Observations

Time (EST) Temp. Windchill Dew Point Humidity Pressure Visibility Wind Dir Wind Speed Gust Speed Precip Events Conditions
12:56 AM 46.9 °F - 41.0 °F 80% 30.20 in 10.0 mi North 6.9 mph - N/A   Overcast
1:56 AM 48.0 °F - 41.0 °F 77% 30.19 in 10.0 mi North 9.2 mph - N/A   Overcast
2:56 AM 46.9 °F - 39.9 °F 77% 30.17 in 10.0 mi NNE 9.2 mph - N/A   Overcast
3:56 AM 46.0 °F 41.9 °F 39.0 °F 76% 30.15 in 10.0 mi NNE 8.1 mph - N/A   Overcast
4:56 AM 45.0 °F 39.7 °F 37.9 °F 76% 30.14 in 10.0 mi NE 10.4 mph - N/A   Scattered Clouds
5:11 AM 44.6 °F 40.7 °F 37.4 °F 76% 30.15 in 10.0 mi NE 6.9 mph - N/A   Mostly Cloudy
5:21 AM 44.6 °F 40.2 °F 37.4 °F 76% 30.15 in 10.0 mi NE 8.1 mph - N/A   Scattered Clouds
5:53 AM 44.6 °F 41.4 °F 37.4 °F 76% 30.15 in 10.0 mi NNE 5.8 mph - N/A   Mostly Cloudy
5:56 AM 44.1 °F 40.1 °F 37.9 °F 79% 30.15 in 10.0 mi NE 6.9 mph - N/A   Mostly Cloudy
6:56 AM 45.0 °F 40.6 °F 39.0 °F 80% 30.14 in 10.0 mi NNE 8.1 mph - N/A   Overcast
7:56 AM 46.9 °F - 39.0 °F 74% 30.15 in 10.0 mi NNE 9.2 mph - N/A   Mostly Cloudy
8:56 AM 48.0 °F - 39.0 °F 71% 30.15 in 10.0 mi NE 9.2 mph - N/A   Overcast
9:56 AM 48.9 °F - 39.0 °F 69% 30.16 in 10.0 mi NNE 11.5 mph 18.4 mph N/A   Overcast
10:56 AM 48.9 °F - 37.9 °F 66% 30.14 in 10.0 mi NE 15.0 mph 20.7 mph N/A   Overcast
11:56 AM 48.9 °F - 37.9 °F 66% 30.12 in 10.0 mi NE 11.5 mph 20.7 mph N/A   Mostly Cloudy
12:56 PM 51.1 °F - 37.9 °F 61% 30.12 in 10.0 mi NE 10.4 mph - N/A   Overcast
1:56 PM 50.0 °F - 37.9 °F 63% 30.11 in 10.0 mi NNE 13.8 mph 19.6 mph N/A   Overcast
3:56 PM 46.0 °F 42.5 °F 37.0 °F 71% 30.11 in 10.0 mi NNE 6.9 mph - N/A   Partly Cloudy
4:56 PM 45.0 °F 42.6 °F 37.0 °F 74% 30.12 in 10.0 mi NNE 4.6 mph - N/A   Mostly Cloudy
5:56 PM 45.0 °F 40.6 °F 37.0 °F 74% 30.12 in 10.0 mi NNE 8.1 mph - N/A   Mostly Cloudy
6:15 PM 44.6 °F 40.7 °F 37.4 °F 76% 30.12 in 10.0 mi NNE 6.9 mph - N/A   Partly Cloudy
6:56 PM 44.1 °F 39.5 °F 37.0 °F 76% 30.12 in 10.0 mi NNE 8.1 mph - N/A   Scattered Clouds
7:56 PM 45.0 °F 40.6 °F 37.0 °F 74% 30.12 in 10.0 mi NNE 8.1 mph - N/A   Clear
8:56 PM 44.1 °F 39.5 °F 37.0 °F 76% 30.12 in 10.0 mi NE 8.1 mph - N/A   Clear
9:56 PM 44.1 °F 40.1 °F 37.9 °F 79% 30.12 in 10.0 mi NNE 6.9 mph - N/A   Clear
10:56 PM 44.1 °F 40.8 °F 39.0 °F 82% 30.12 in 10.0 mi NNE 5.8 mph - N/A   Clear
11:56 PM 42.1 °F - 37.0 °F 82% 30.12 in 10.0 mi Calm Calm - N/A   Clear